This is the latest recevied weather packets stored in our database for station/object K7YVO. If no packets are shown the sender has not sent any weather packets the latest 10 day(s).
| Time | Temp. | Humidity | Pressure | Rain* | Wind** | Luminosity | Snow |
|---|---|---|---|---|---|---|---|
| 1777483418 | 11.11° C | 67% | 1025.5 hPa | 0 mm | - | 537 W/m² | - |
| 1777483113 | 10.56° C | 68% | 1025.4 hPa | 0 mm | - | 50 W/m² | - |
| 1777482811 | 10.56° C | 68% | 1025.4 hPa | 0 mm | - | 48 W/m² | - |
| 1777482506 | 10.56° C | 68% | 1025.5 hPa | 0 mm | - | 47 W/m² | - |
| 1777481296 | 9.44° C | 71% | 1025.7 hPa | 0 mm | - | 43 W/m² | - |
| 1777480688 | 9.44° C | 73% | 1026 hPa | 0 mm | - | 41 W/m² | - |
| 1777480385 | 9.44° C | 74% | 1025.6 hPa | 0 mm | - | 41 W/m² | - |
| 1777480081 | 8.89° C | 74% | 1025.8 hPa | 0 mm | - | 40 W/m² | - |
| 1777479475 | 8.89° C | 75% | 1026 hPa | 0 mm | - | 39 W/m² | - |
| 1777479172 | 8.89° C | 75% | 1026 hPa | 0 mm | - | 38 W/m² | - |
| 1777478869 | 8.89° C | 74% | 1026 hPa | 0 mm | - | 38 W/m² | - |
| 1777478565 | 8.33° C | 76% | 1026.1 hPa | 0 mm | - | 37 W/m² | - |
| 1777477047 | 8.33° C | 76% | 1026.4 hPa | 0 mm | - | 34 W/m² | - |
| 1777475834 | 7.22° C | 79% | 1026.4 hPa | 0 mm | - | 31 W/m² | - |
| 1777475530 | 7.22° C | 80% | 1026.4 hPa | 0 mm | - | 30 W/m² | - |
| 1777474618 | 6.67° C | 82% | 1026.5 hPa | 0 mm | - | 28 W/m² | - |
| 1777474315 | 6.11° C | 84% | 1026.4 hPa | 0 mm | - | 27 W/m² | - |
| 1777473405 | 5.56° C | 91% | 1026.5 hPa | 0 mm | - | 26 W/m² | - |
| 1777472798 | 5° C | 94% | 1026.4 hPa | 0 mm | - | 24 W/m² | - |
| 1777472192 | 5° C | 94% | 1026.4 hPa | 0 mm | - | 23 W/m² | - |
| 1777468854 | 3.33° C | 94% | 1026.1 hPa | 0 mm | - | 8 W/m² | - |
| 1777468551 | 3.89° C | 94% | 1026 hPa | 0 mm | - | 6 W/m² | - |
| 1777466729 | 3.89° C | 94% | 1025.9 hPa | 0 mm | - | 0 W/m² | - |
| 1777466426 | 3.89° C | 94% | 1026.3 hPa | 0 mm | - | 0 W/m² | - |
| 1777465514 | 4.44° C | 93% | 1025.9 hPa | 0 mm | - | 0 W/m² | - |
* Rain latest hour (hover to see other rain measurements)
** Current wind speed in m/s (hover to see current wind gust speed)